Location: Newark
(44.2886°N, 4.8431°E)
Time: 15:50:17
(UTC+00:00)

ZACube-1 - Pass Details

Date: 27 November 2020
Orbit: 584 x 665 km, 97.6° (Epoch: 14 January)

Event Time Altitude Azimuth Distance (km) Brightness Sun altitude
Rises 16:52:10 0° 194° (SSW) 2,881 ? -8.5°
Reaches altitude 10° 16:54:38 10° 206° (SSW) 1,967 ? -8.9°
Maximum altitude 16:58:16 27° 265° (W) 1,180 ? -9.5°
Drops below altitude 10° 17:01:51 10° 323° (NW) 1,944 ? -10.2°
Sets 17:04:17 0° 336° (NNW) 2,841 ? -10.6°
